Notices

What's New in latest Release from April 7th, 2021:

- Updated Glossary, including Speed of Maximum Gust, and Total Hourly Precipitation

- Updated national and regional climate services offices contacts and prices information

- Addition of station inventory lists for 1981-2010, 1971-2000, and 1961-1990 Normals.

If you haven't already, please take our survey and provide feedback about our website: https://eccc.sondage-survey.ca/f/LanguageSelection.aspx?s=442ca660-fcf1-47c0-95a9-59707d6fd709

Hourly Data Report for July 02, 2018

OTTAWA INTL A
ONTARIO
Current Station Operator: NAVCAN

45°19'00.000" N
75°40'00.000" W
114.90 m
6106001
71628
YOW

Download Data

Hourly Data (July 2018)
Hourly Data Report for July 2, 2018
TIME
LST
Temp Definition
°C
Dew Point Definition
°C
Rel Hum Definition
%
Precip. Amount Definition
mm

Wind Dir Definition
10's deg

Wind Spd Definition
km/h
Visibility Definition
km
Stn Press Definition
kPa
Hmdx Definition


Wind Chill Definition


Weather Definition


00:00 23.5 21.8 90   20 9 24.1 100.04 33   LegendNANA
01:00 23.2 21.5 90   19 6 24.1 100.07 32   Mainly Clear
02:00 22.6 21.3 93   17 9 16.1 100.02 31   LegendNANA
03:00 22.4 21.3 93   17 7 16.1 100.02 31   LegendNANA
04:00 22.7 21.1 91   17 7 16.1 100.01 31   Mainly Clear
05:00 22.4 21.0 92   17 8 16.1 100.02 31   LegendNANA
06:00 24.5 22.1 86   18 10 24.1 100.02 34   LegendNANA
07:00 27.1 23.1 79   19 8 24.1 100.03 37   Mainly Clear
08:00 29.4 23.2 69   20 18 24.1 100.04 40   LegendNANA
09:00 31.1 22.8 61   20 19 24.1 100.01 41   LegendNANA
10:00 33.3 23.2 55   19 17 24.1 100.01 44   Mainly Clear
11:00 33.7 23.3 54   21 22 24.1 99.99 44   LegendNANA
12:00 34.6 22.5 49   19 26 24.1 99.94 44   LegendNANA
13:00 34.6 21.6 46   21 32 24.1 99.88 44   Mostly Cloudy
14:00 35.5 21.9 45   23 27 24.1 99.87 45   LegendNANA
15:00 27.0 21.2 70   22 19 24.1 99.94 36   LegendNANA
16:00 31.9 20.8 51   23 28 24.1 99.94 40   Mostly Cloudy
17:00 29.3 22.0 64   24 19 24.1 99.97 39   LegendNANA
18:00 29.7 21.2 60   22 17 24.1 100.02 38   LegendNANA
19:00 28.4 21.6 66   22 25 24.1 100.06 37   Mostly Cloudy
20:00 27.6 21.8 70   23 17 24.1 100.11 37   LegendNANA
21:00 26.8 22.1 75   22 19 24.1 100.19 36   LegendNANA
22:00 25.9 22.5 81   23 16 24.1 100.27 36   Mainly Clear
23:00 24.9 22.3 86   24 14 24.1 100.34 35   LegendNANA

Notes on Data Quality.

Legend

  • E = Estimated
  • M = Missing
  • NA = Not Available*
  • [empty] = Indicates an unobserved value
Date modified: